EN

Hourly Weather Vigevano

Today, 3 December, Thursday

Time Temperature Precipitation Wind Pressure Humidity
00:00 +5°C° 0 mm 1 mps 748 mmHg 89%
01:00 +4°C° 0 mm 2 mps 747 mmHg 87%
02:00 +4°C° 0 mm 2 mps 747 mmHg 88%
03:00 +3°C° 0 mm 2 mps 747 mmHg 89%
04:00 +3°C° 0 mm 2 mps 746 mmHg 90%
05:00 +4°C° 0 mm 1 mps 746 mmHg 90%
06:00 +4°C° 0 mm 1 mps 746 mmHg 90%
07:00 +3°C° 0 mm 0 mps 746 mmHg 90%
08:00 +3°C° 0 mm 0 mps 746 mmHg 87%
09:00 +4°C° 0 mm 0 mps 746 mmHg 85%
10:00 +4°C° 0 mm 0 mps 746 mmHg 82%
11:00 +6°C° 0 mm 1 mps 746 mmHg 79%
12:00 +7°C° 0 mm 1 mps 745 mmHg 76%
13:00 +8°C° 0 mm 1 mps 745 mmHg 73%
14:00 +6°C° 0 mm 2 mps 744 mmHg 76%
15:00 +6°C° 0 mm 2 mps 744 mmHg 78%
16:00 +6°C° 0 mm 2 mps 744 mmHg 81%
17:00 +5°C° 0 mm 2 mps 744 mmHg 85%
18:00 +4°C° 0 mm 2 mps 744 mmHg 89%
19:00 +4°C° 0 mm 2 mps 744 mmHg 92%
20:00 +4°C° 0 mm 2 mps 744 mmHg 92%
21:00 +4°C° 0 mm 2 mps 744 mmHg 92%
22:00 +4°C° 0 mm 2 mps 744 mmHg 92%
23:00 +4°C° 0.1 mm 2 mps 744 mmHg 92%

Tomorrow, 4 December, Friday

Time Temperature Precipitation Wind Pressure Humidity
00:00 +4°C° 0.1 mm 2 mps 743 mmHg 92%
01:00 +4°C° 0.1 mm 2 mps 743 mmHg 92%
02:00 +4°C° 0.4 mm 2 mps 742 mmHg 93%
03:00 +4°C° 0.4 mm 2 mps 742 mmHg 93%
04:00 +3°C° 0.4 mm 3 mps 741 mmHg 94%
05:00 +3°C° 0.8 mm 3 mps 741 mmHg 94%
06:00 +3°C° 0.8 mm 4 mps 740 mmHg 94%
07:00 +2°C° 0.8 mm 5 mps 740 mmHg 94%
08:00 +2°C° 2.2 mm 5 mps 739 mmHg 94%
09:00 +2°C° 2.2 mm 6 mps 739 mmHg 93%
10:00 +2°C° 2.2 mm 6 mps 738 mmHg 93%
11:00 +2°C° 3.3 mm 6 mps 738 mmHg 93%
12:00 +2°C° 3.3 mm 6 mps 737 mmHg 93%
13:00 +2°C° 3.3 mm 5 mps 736 mmHg 93%
14:00 +2°C° 2 mm 5 mps 736 mmHg 93%
15:00 +2°C° 2 mm 5 mps 736 mmHg 93%
16:00 +2°C° 2 mm 5 mps 735 mmHg 94%
17:00 +3°C° 0.9 mm 5 mps 735 mmHg 94%
18:00 +3°C° 0.9 mm 5 mps 735 mmHg 94%
19:00 +3°C° 0.9 mm 5 mps 735 mmHg 94%
20:00 +4°C° 2.4 mm 4 mps 735 mmHg 95%
21:00 +4°C° 2.4 mm 3 mps 735 mmHg 95%
22:00 +4°C° 2.4 mm 3 mps 734 mmHg 96%
23:00 +5°C° 0.4 mm 2 mps 734 mmHg 96%

Day after tomorrow, 5 December, Saturday

Time Temperature Precipitation Wind Pressure Humidity
00:00 +5°C° 0.4 mm 2 mps 734 mmHg 96%
01:00 +6°C° 0.4 mm 1 mps 734 mmHg 95%
02:00 +6°C° 0.1 mm 1 mps 735 mmHg 95%
03:00 +6°C° 0.1 mm 1 mps 735 mmHg 95%
04:00 +6°C° 0.1 mm 1 mps 735 mmHg 94%
05:00 +6°C° 0.1 mm 1 mps 736 mmHg 94%
06:00 +6°C° 0.1 mm 1 mps 736 mmHg 93%
07:00 +5°C° 0.1 mm 0 mps 737 mmHg 93%
08:00 +6°C° 0.1 mm 1 mps 737 mmHg 92%
09:00 +6°C° 0.1 mm 1 mps 737 mmHg 92%
10:00 +6°C° 0.1 mm 1 mps 738 mmHg 92%
11:00 +7°C° 0 mm 1 mps 738 mmHg 90%
12:00 +7°C° 0 mm 1 mps 738 mmHg 89%
13:00 +8°C° 0 mm 1 mps 738 mmHg 87%
14:00 +7°C° 0 mm 1 mps 738 mmHg 88%
15:00 +7°C° 0 mm 1 mps 738 mmHg 89%
16:00 +7°C° 0 mm 1 mps 738 mmHg 89%
17:00 +7°C° 0.1 mm 1 mps 739 mmHg 90%
18:00 +7°C° 0.1 mm 1 mps 739 mmHg 90%
19:00 +7°C° 0.1 mm 1 mps 739 mmHg 91%
20:00 +7°C° 0.5 mm 1 mps 740 mmHg 91%
21:00 +7°C° 0.5 mm 1 mps 740 mmHg 91%
22:00 +5°C° 0.5 mm 2 mps 740 mmHg 92%
23:00 +6°C° 0.2 mm 1 mps 740 mmHg 91%

6 December, Sunday

Time Temperature Precipitation Wind Pressure Humidity
00:00 +6°C° 0.2 mm 1 mps 740 mmHg 90%
01:00 +6°C° 0.2 mm 1 mps 740 mmHg 89%
02:00 +6°C° 0 mm 1 mps 740 mmHg 89%
03:00 +6°C° 0 mm 1 mps 740 mmHg 88%
04:00 +6°C° 0 mm 1 mps 740 mmHg 88%
05:00 +6°C° 0 mm 1 mps 740 mmHg 87%
06:00 +5°C° 0 mm 2 mps 740 mmHg 87%
07:00 +5°C° 0 mm 2 mps 740 mmHg 86%
08:00 +5°C° 0 mm 2 mps 740 mmHg 84%
09:00 +5°C° 0 mm 2 mps 740 mmHg 82%
10:00 +5°C° 0 mm 2 mps 739 mmHg 79%
11:00 +6°C° 0 mm 2 mps 739 mmHg 75%
12:00 +6°C° 0 mm 2 mps 738 mmHg 72%
13:00 +7°C° 0 mm 2 mps 737 mmHg 68%
14:00 +6°C° 0 mm 2 mps 737 mmHg 69%
15:00 +6°C° 0 mm 2 mps 737 mmHg 71%
16:00 +6°C° 0 mm 2 mps 737 mmHg 72%
17:00 +5°C° 0 mm 2 mps 737 mmHg 74%
18:00 +5°C° 0 mm 2 mps 738 mmHg 76%
19:00 +4°C° 0 mm 2 mps 738 mmHg 79%
20:00 +4°C° 0 mm 2 mps 738 mmHg 78%
21:00 +5°C° 0 mm 1 mps 738 mmHg 78%
22:00 +4°C° 0 mm 1 mps 739 mmHg 78%
23:00 +4°C° 0 mm 1 mps 739 mmHg 78%

7 December, Monday

Time Temperature Precipitation Wind Pressure Humidity
00:00 +4°C° 0 mm 1 mps 739 mmHg 77%
01:00 +3°C° 0 mm 1 mps 739 mmHg 77%
02:00 +3°C° 0 mm 1 mps 740 mmHg 76%
03:00 +3°C° 0 mm 1 mps 740 mmHg 74%
04:00 +3°C° 0 mm 1 mps 740 mmHg 73%
05:00 +3°C° 0 mm 1 mps 740 mmHg 73%
06:00 +3°C° 0 mm 1 mps 741 mmHg 72%
07:00 +2°C° 0 mm 1 mps 741 mmHg 72%
08:00 +3°C° 0 mm 1 mps 742 mmHg 69%
09:00 +4°C° 0 mm 1 mps 742 mmHg 67%
10:00 +4°C° 0 mm 1 mps 743 mmHg 64%
11:00 +5°C° 0 mm 1 mps 743 mmHg 63%
12:00 +6°C° 0 mm 1 mps 743 mmHg 62%
13:00 +6°C° 0 mm 1 mps 743 mmHg 61%
14:00 +6°C° 0 mm 1 mps 743 mmHg 64%
15:00 +5°C° 0 mm 0 mps 743 mmHg 67%
16:00 +5°C° 0 mm 0 mps 744 mmHg 71%
17:00 +5°C° 0.1 mm 0 mps 744 mmHg 72%
18:00 +5°C° 0.1 mm 1 mps 744 mmHg 73%
19:00 +5°C° 0.1 mm 1 mps 745 mmHg 75%
20:00 +5°C° 0 mm 1 mps 745 mmHg 75%
21:00 +5°C° 0 mm 1 mps 745 mmHg 76%
22:00 +5°C° 0 mm 1 mps 745 mmHg 76%
23:00 +4°C° 0 mm 1 mps 745 mmHg 77%

8 December, Tuesday

Time Temperature Precipitation Wind Pressure Humidity
00:00 +4°C° 0 mm 1 mps 745 mmHg 77%
01:00 +4°C° 0 mm 1 mps 745 mmHg 78%
02:00 +4°C° 0 mm 1 mps 745 mmHg 77%
03:00 +4°C° 0 mm 1 mps 745 mmHg 77%
04:00 +4°C° 0 mm 1 mps 745 mmHg 76%
05:00 +3°C° 0 mm 1 mps 745 mmHg 76%
06:00 +3°C° 0 mm 1 mps 745 mmHg 75%
07:00 +3°C° 0 mm 1 mps 745 mmHg 74%
08:00 +3°C° 0 mm 1 mps 745 mmHg 72%
09:00 +4°C° 0 mm 1 mps 745 mmHg 70%
10:00 +4°C° 0 mm 1 mps 745 mmHg 68%
11:00 +5°C° 0 mm 1 mps 745 mmHg 65%
12:00 +6°C° 0 mm 1 mps 745 mmHg 62%
13:00 +7°C° 0 mm 1 mps 744 mmHg 59%
14:00 +7°C° 0 mm 1 mps 744 mmHg 62%
15:00 +5°C° 0 mm 0 mps 744 mmHg 64%
16:00 +5°C° 0 mm 0 mps 744 mmHg 66%
17:00 +5°C° 0 mm 0 mps 744 mmHg 69%
18:00 +5°C° 0 mm 1 mps 744 mmHg 71%
19:00 +4°C° 0 mm 1 mps 745 mmHg 74%
20:00 +4°C° 0 mm 1 mps 745 mmHg 75%
21:00 +4°C° 0 mm 1 mps 745 mmHg 76%
22:00 +4°C° 0 mm 1 mps 745 mmHg 76%
23:00 +3°C° 0 mm 2 mps 745 mmHg 75%
Show more

We Need Your Consent

Meteoprog and our Service Providers may store and access personal data such as cookies, device identifiers or other similar technologies on your device and process such data to personalise content and ads, as well as provide social media features and to analyse the traffic.

  • Store and/or access information on your device

    Cookies, device identifiers or other information can be stored or accessed on your device for the purposes indicated above.

  • Personalised ads and content, ad and content measurement, audience insights, and products development

    Ads and content can be personalised based on a profile. More data can be added to better personalise ads and content. Ad and content performance can be measured. Insights about the audience who saw the ads and content can be derived. Such data can be used to develop or improve user’s experience, systems and software.

By clicking ‘I Agree’ you will allow the use of indicated cookies, device identifiers, web beacons or other similar technologies. Your settings can be changed in the browser on your device.

For certain purposes, legitimate interests may be relied on, rather than consent. You can read more about this in our Privacy and Cookie Policy.